{"data":{"norad_id":55976,"intl_designator":"2023-039D","name":"TIANMU-1 06","alt_names":[],"object_type":"PAYLOAD","status":"ACTIVE","operator":null,"country":"PRC","launch_date":"2023-03-22","launch_site_code":"JSC","launch_vehicle":null,"mission":null,"orbit_class":"UNKNOWN","rcs_meters":null,"size_class":null,"mass_kg":null,"dimensions":null,"purposes":["earth_obs"],"wikipedia_slug":null,"has_3d_model":false,"image_url":null,"decayed_at":null,"tle_current":{"epoch":"2026-05-25T05:11:11.325120Z","epoch_age_seconds":49670,"freshness":"FRESH","line1":"1 55976U 23039D   26145.21610330  .00015147  00000+0  30141-3 0  9992","line2":"2 55976  97.5220 318.5364 0003335 171.9822 188.1481 15.47025564177299","mean_motion":15.47025564,"eccentricity":0.0003335,"inclination_deg":97.522,"raan_deg":318.5364,"arg_perigee_deg":171.9822,"mean_anomaly_deg":188.1481,"bstar":0.00030141,"rev_number":17729,"period_min":93.081849034009,"perigee_km":423.16385758811,"apogee_km":427.70183867681,"semimajor_km":6803.5698481325,"source":"CELESTRAK","updated_at":"2026-05-25T13:38:12.253854Z"}}}